www.pogodaiklimat.ru

Погода и климат >> Архив погоды >> Филиппины >> Алабат


ПОГОДА на Алабате

  • Прогноз погоды на Алабате
  • Монитор погоды на Алабате

АРХИВ ПОГОДЫ на Алабате

Время (UTC), дата Ветер
(напр.,м/с)
 
Видим.   Явления Облачность Т
(С)
Тd
(С)
f
(%)
Тe
(С)
Тes
(С)
Комфортность P
(гПа)
Po
(гПа)
Тmin
(С)
Tmax
(С)
R
(мм)
R24
(мм)
S
(см)
03 9.09 ЮЗ 3 25 км 8/4 540 м
[Cu med, cong Ci sp]
+32.5 +25.8 68 +48 +57 опасность
перегрева
1007.9 1007.3
06 9.09 ЮЗ 2 20 км 9/5 540 м
[Cu med, cong Ac As]
+32.8 +25.9 67 +48 +52 опасность
перегрева
1006.8 1006.2
09 9.09 З 2 25 км 8/4 540 м
[Cu med, cong Ci sp]
+32.0 +24.8 66 +45 +46 опасность
перегрева
1006.8 1006.2
12 9.09 З 2 25 км 8/4 540 м
[Cu med, cong Ci sp]
+28.5 +24.3 78 +40 +40 очень
душно
1009.8 1009.2 +34.0
15 9.09 штиль 0 22 км 9/5 540 м
[Cu med, cong Ac As]
+26.3 +23.6 85 +36 +36 очень
душно
1009.4 1008.8
18 9.09 З 3 22 км 9/5 540 м
[Cu med, cong Ac As]
+26.0 +23.4 86 +35 +35 очень
душно
1007.6 1007.0
00 10.09 З 2 20 км 10/5 540 м
[Cu med, cong Ac As]
+28.0 +24.1 79 +39 +40 очень
душно
1010.6 1010.0 +24.2
03 10.09 ЮЗ 2 25 км 8/4 540 м
[Cu med, cong Ci sp]
+31.0 +25.7 73 +46 +56 опасность
перегрева
1009.7 1009.1
06 10.09 З 2 22 км 9/5 540 м
[Cu med, cong Ac As]
+32.8 +26.1 68 +49 +52 опасность
перегрева
1008.0 1007.4
09 10.09 З 2 25 км 8/4 540 м
[Cu med, cong Ci sp]
+30.0 +24.7 73 +43 +43 опасность
перегрева
1008.6 1008.0
12 10.09 З 2 20 км 9/5 540 м
[Cu med, cong Ac As]
+28.8 +24.3 77 +40 +40 очень
душно
1010.4 1009.8 +33.5
15 10.09 З 3 20 км 9/5 540 м
[Cu med, cong Ac As]
+28.2 +24.1 78 +39 +39 очень
душно
1010.4 1009.8
18 10.09 З 3 20 км 10/5 540 м
[Cu med, cong Ac As]
+28.0 +24.0 79 +39 +39 очень
душно
1009.5 1008.9
21 10.09 З 2 20 км 10/5 540 м
[Cu med, cong Ac As]
+27.2 +23.7 81 +37 +37 очень
душно
1009.1 1008.5
00 11.09 З 2 20 км 10/5 540 м
[Cu med, cong Ac As]
+28.0 +24.6 82 +40 +41 очень
душно
1009.7 1009.1 +26.0
03 11.09 З 2 20 км 9/5 540 м
[Cu med, cong Ac As]
+30.0 +25.0 75 +43 +48 опасность
перегрева
1009.6 1009.0 0.8
06 11.09 З 3 20 км {дождь} 10/5 540 м
[Cu med, cong Ac As]
+31.0 +24.7 69 +44 +46 опасность
перегрева
1007.0 1006.4 0.8
09 11.09 З 1 20 км в посл. час дождь 10/5 540 м
[Cu med, cong Ac As]
+29.1 +25.0 79 +42 +42 опасность
перегрева
1006.5 1005.9 0.9
12 11.09 З 2 20 км {дождь} 10/5 540 м
[Cu med, cong Ac As]
+28.0 +24.3 80 +39 +39 очень
душно
1007.6 1007.0 +32.0 0.9
15 11.09 В 1 20 км слаб. дождь 10/5 540 м
[Cu med, cong Ac As]
+26.7 +23.3 82 +36 +36 очень
душно
1008.5 1007.9 0.2
18 11.09 штиль 0 20 км слаб. дождь 10/5 540 м
[Cu med, cong Ac As]
+25.0 +23.6 92 +34 +34 очень
душно
1006.1 1005.5 7
21 11.09 В 1 20 км слаб. дождь 10/5 540 м
[Cu med, cong Ac As]
+24.8 +23.4 92 +33 +33 очень
душно
1004.5 1003.9 0.3
00 12.09 З 1 18 км слаб. дождь 10/5 540 м
[Cu med, cong Ac As]
+25.4 +24.1 93 +35 +36 очень
душно
1006.8 1006.2 +23.5 17
03 12.09 З 1 18 км слаб. дождь 10/5 540 м
[Cu med, cong Ac As]
+25.0 +23.6 92 +34 +37 очень
душно
1006.8 1006.2 21
06 12.09 З 2 20 км в посл. час дождь 10/5 540 м
[Cu med, cong Ac As]
+26.8 +24.8 89 +38 +41 очень
душно
1003.6 1003.0 34
09 12.09 З 1 20 км 10/5 540 м
[Cu med, cong Ac As]
+27.0 +24.3 85 +38 +38 очень
душно
1003.3 1002.7
12 12.09 СВ 1 20 км 10/5 540 м
[Cu med, cong Ac As]
+26.0 +24.7 93 +37 +37 очень
душно
1004.6 1004.0 +28.0
15 12.09 штиль 0 20 км 10/5 540 м
[Cu med, cong Ac As]
+25.8 +24.5 93 +36 +36 очень
душно
1004.9 1004.3
18 12.09 штиль 0 20 км слаб. дождь 10/5 540 м
[Cu med, cong Ac lent]
+25.0 +23.6 92 +34 +34 очень
душно
1003.6 1003.0 10
21 12.09 В 1 18 км слаб. дождь 10/5 540 м
[Cu med, cong Ac As]
+24.8 +23.4 92 +33 +33 очень
душно
1003.7 1003.1 6
00 13.09 С 2 18 км слаб. дождь {туман} 10/5 540 м
[Cu med, cong Ac As]
+26.4 +24.6 90 +37 +40 очень
душно
1005.3 1004.1 +24.0 12
03 13.09 З 1 20 км в посл. час дождь 10/5 540 м
[Cu med, cong Ac As]
+27.0 +25.7 93 +40 +44 очень
душно
1005.3 1004.7 6
06 13.09 З 1 20 км в посл. час дождь 10/5 540 м
[Cu med, cong Ac As]
+26.3 +24.6 90 +37 +40 очень
душно
1004.0 1003.4 16
09 13.09 ЮВ 1 20 км слаб. дождь 10/5 540 м
[Cu med, cong Ac As]
+28.0 +24.7 82 +40 +40 очень
душно
1004.8 1004.2 1
12 13.09 штиль 0 20 км слаб. дождь 10/5 540 м
[Cu med, cong Ac As]
+25.8 +24.5 93 +36 +36 очень
душно
1006.9 1006.3 +27.3 2
15 13.09 СВ 1 20 км 10/5 540 м
[Cu med, cong Ac As]
+25.0 +23.6 92 +34 +34 очень
душно
1007.4 1006.8
18 13.09 штиль 0 20 км 10/5 540 м
[Cu med, cong Ac lent]
+25.0 +23.6 92 +34 +34 очень
душно
1003.6 1003.0
21 13.09 В 1 20 км 10/5 540 м
[Cu med, cong Ac As]
+24.8 +23.4 92 +33 +33 очень
душно
1003.7 1003.1
00 14.09 З 1 20 км 10/5 540 м
[Cu med, cong Ac As]
+26.8 +24.9 89 +38 +39 очень
душно
1007.5 1006.9 +23.0 18
03 14.09 штиль 0 20 км 10/5 540 м
[Cu med, cong Ac As]
+29.5 +24.9 76 +42 +46 опасность
перегрева
1007.3 1006.7
06 14.09 ЮЗ 3 20 км 9/5 540 м
[Cu med, cong Ac As]
+30.7 +25.9 76 +46 +49 опасность
перегрева
1005.7 1005.1
09 14.09 штиль 0 20 км 10/5 540 м
[Cu med, cong Ac As]
+30.0 +26.1 80 +45 +46 опасность
перегрева
1006.6 1006.0
12 14.09 штиль 0 20 км слаб. дождь 10/5 540 м
[Cu med, cong Ac As]
+25.8 +25.2 96 +37 +37 очень
душно
1008.3 1007.7 +31.5 35
15 14.09 ЮВ 1 20 км {дождь} 10/5 540 м
[Cu med, cong Ac As]
+25.7 +24.4 93 +36 +36 очень
душно
1008.7 1008.1 0.2
18 14.09 СВ 1 20 км {дождь} 10/5 540 м
[Cu med, cong Ac As]
+26.0 +24.7 93 +37 +37 очень
душно
1007.6 1007.0 0.2
21 14.09 СВ 1 20 км 10/5 540 м
[Cu med, cong Ac As]
+25.0 +23.6 92 +34 +34 очень
душно
1007.5 1006.9
00 15.09 ЮЗ 2 20 км 10/5 540 м
[Cu med, cong Ac As]
+27.0 +24.3 85 +38 +39 очень
душно
1008.6 1008.0 +23.0 35
03 15.09 ЮЗ 2 20 км 10/5 540 м
[Cu med, cong Ac As]
+29.7 +24.8 75 +42 +45 опасность
перегрева
1007.6 1007.0
06 15.09 ЮЗ 3 20 км 10/5 540 м
[Cu med, cong Ac As]
+29.8 +25.5 78 +44 +46 опасность
перегрева
1006.1 1005.5
09 15.09 ЮЗ 4 20 км 10/5 540 м
[Cu med, cong Ac As]
+28.5 +23.8 76 +39 +39 очень
душно
1005.6 1005.0
12 15.09 ЮЗ 5 20 км 10/5 540 м
[Cu med, cong Ac As]
+28.0 +23.6 77 +38 +38 очень
душно
1006.7 1006.1 +30.8
15 15.09 ЮЗ 2 20 км 10/5 540 м
[Cu med, cong Ac As]
+25.7 +24.4 93 +36 +36 очень
душно
1008.7 1008.1
18 15.09 СВ 1 20 км 10/5 540 м
[Cu med, cong Ac As]
+26.0 +24.7 93 +37 +37 очень
душно
1007.6 1007.0

 

Местоположение метеостанции Алабат (Филиппины): широта 14.08 долгота 122.01 высота над уровнем моря 5 м.

В архиве по умолчанию представлена погода на Алабате за последнюю неделю. Архивные данные за месяц целиком и за предыдущие месяцы, начиная с января 2011 года, Вы можете получить, выбрав интересующий диапазон дат из раскрывающегося списка и нажав кнопку "Ввод!".


*Определитесь, кто Вы:
робот инопланетянин человек

Внимание! Время в таблицах - всемирное. Для получения местного времени необходимо прибавить поправку, которая равна 8 ч.

Смотрите также архив погоды в соседних городах и на ближайших метеорологических станциях:

Погода в Тайябасе (Филиппины) (47 км)
Погода в Инфанте (Филиппины) (84 км)
Погода в Танае (Филиппины) (85 км)
Погода на Амбулонге (Филиппины) (104 км)
Погода в Даете (Филиппины) (105 км)
Погода в Калапане (Филиппины) (116 км)
Погода в Аэропорту Ninoy Aquino (Филиппины) (119 км)
Погода в Научном саду (Филиппины) (124 км)
Погода в Маниле (Филиппины) (124 км)
Погода в Сангли Пойнт (Филиппины) (127 км)

Пояснения к столбцам:

Ветер - указаны скорость ветра в м/с - средняя за 10 мин, порывы в срок и между сроками (в фигурных скобках) и направление, откуда дует ветер: С - северный, СВ - северо-восточный, В - восточный, ЮВ - юго-восточный, Ю - южный, ЮЗ - юго-западный, З - западный, СЗ - северо-западный.
Видимость - горизонтальная дальность видимости в метрах или километрах. При видимости от 1 до 10 км при отсутствии осадков обычно наблюдается дымка, при ухудшении видимости до 1 км и менее - туман. В сухую погоду видимость может ухудшаться дымом, пылью или мглою.
Явления - указаны атмосферные явления, наблюдавшиеся в срок или в последний час перед сроком; фигурными скобками обозначены явления, наблюдавшиеся между сроками (за 1-3 часа до срока); квадратными скобками обозначены град или гололедные отложения с указанием их диаметра в мм.
Облачность - указаны через наклонную черту общая и нижняя облачность в баллах и высота нижней границы облаков в метрах; квадратными скобками обозначены формы облаков: Ci - перистые, Cs - перисто-слоистые, Cc - перисто-кучевые, Ac - высококучевые, As - высокослоистые, Sc - слоисто-кучевые, Ns - слоисто-дождевые, Cu - кучевые, Cb - кучево-дождевые. Подробнее классификацию облаков см. в Атласе облаков (PDF).
T - Температура воздуха - температура, измеренная на высоте 2 м над землей.
Td - Температура точки росы - температура, при понижении до которой содержащийся в воздухе водяной пар достигнет насыщения.
f - Относительная влажность воздуха - влажноcть воздуха, измеренная на высоте 2 м над землей.
Te - Эффективная температура - температура, которую ощущает одетый по сезону человек в тени. Характеристика душности погоды. При расчете учитывается влияние влажности воздуха и скорости ветра на теплоощущения человека.
Tes - Эффективная температура на солнце - температура, которую ощущает человек, с поправкой на солнечный нагрев. Характеристика знойности погоды. Зависит от высоты солнца над горизонтом, облачности и скорости ветра. Ночью, в пасмурную погоду, а также при ветре 12 м/с и более поправка равна нулю.
P - Атмосферное давление - приведенное к уровню моря атмосферное давление.
Po - Атмосферное давление - измеренное на уровне метеостанции атмосферное давление.
Tmin - Минимальная температура - минимум температуры воздуха на высоте 2 м над землей.
Tmax - Максимальная температура - максимум температуры воздуха на высоте 2 м над землей.
R - Количество осадков - Количество выпавших осадков за период времени, мм. При наведении курсора мыши на число - период времени, за который выпало указанное количество осадков.
R24 - Количество осадков - Количество выпавших осадков за 24 часа, мм.
S - Снежный покров - Высота снежного покрова, см. При наведении курсора мыши на число - состояние снежного покрова и степень покрытия местности в баллах.